Location: Unspecified
(0.0000°N, 0.0000°E)
Time: 11:13:21
(UTC+00:00)

Transit 2A Rocket - Visible Passes

Search period start: 01 September 2014 00:00
Search period end: 11 September 2014 00:00
Orbit: 594 x 914 km, 66.7° (Epoch: 01 September)

Date Brightness Start Highest point End Pass type
(mag) Time Alt. Az. Time Alt. Az. Time Alt. Az.
01 Sep 5.6 04:21:08 18° S 04:24:26 47° ESE 04:28:42 10° NE visible
02 Sep 6.9 03:42:18 21° ESE 03:42:44 21° ESE 03:46:10 10° ENE visible
02 Sep 6.2 05:22:22 11° WSW 05:25:03 17° WNW 05:27:56 10° NNW visible
03 Sep 5.1 04:43:22 38° WNW 04:43:30 38° WNW 04:47:36 10° N visible
04 Sep 6.1 04:04:11 29° NNE 04:04:11 29° NNE 04:06:21 10° NNE visible
